Time,TemperatureF,DewpointF,PressureIn,WindDirection,WindDirectionDegrees,WindSpeedMPH,WindSpeedGustMPH,Humidity,HourlyPrecipIn,Conditions,Clouds,dailyrainin,SolarRadiationWatts/m^2,SoftwareType,DateUTC
2013-08-25 00:03:00,-999.0,-99.9,-100.00,SE,135,1.0,3.0,-999,-99.99,,,-99.99,0.000000,,2013-08-25 04:03:00,
2013-08-25 00:14:00,54.0,52.0,-100.00,SE,135,1.0,3.0,93,0.00,,,0.00,0.000000,,2013-08-25 04:14:00,
2013-08-25 00:54:00,52.0,50.0,-100.00,West,280,0.0,2.0,93,0.00,,,0.00,0.000000,,2013-08-25 04:54:00,
2013-08-25 01:03:00,52.0,50.0,-100.00,West,280,0.0,2.0,93,0.00,,,0.00,0.000000,,2013-08-25 05:03:00,
2013-08-25 01:12:00,52.0,50.0,-100.00,West,280,0.0,2.0,93,0.00,,,0.00,0.000000,,2013-08-25 05:12:00,
2013-08-25 01:23:00,52.0,50.0,-100.00,West,280,0.0,2.0,93,0.00,,,0.00,0.000000,,2013-08-25 05:23:00,
2013-08-25 01:52:00,53.0,51.0,-100.00,East,92,0.0,2.0,92,0.00,,,0.00,0.000000,,2013-08-25 05:52:00,
2013-08-25 02:03:00,53.0,51.0,-100.00,East,92,0.0,2.0,92,0.00,,,0.00,0.000000,,2013-08-25 06:03:00,
2013-08-25 02:12:00,53.0,51.0,-100.00,East,92,0.0,2.0,92,0.00,,,0.00,0.000000,,2013-08-25 06:12:00,
2013-08-25 02:22:00,53.0,51.0,-100.00,East,92,0.0,2.0,92,0.00,,,0.00,0.000000,,2013-08-25 06:22:00,
2013-08-25 02:52:00,51.0,50.0,-100.00,SE,124,0.0,3.0,95,0.00,,,0.00,0.000000,,2013-08-25 06:52:00,
2013-08-25 03:01:00,51.0,50.0,-100.00,SE,124,0.0,3.0,95,0.00,,,0.00,0.000000,,2013-08-25 07:01:00,
2013-08-25 03:12:00,51.0,50.0,-100.00,SE,124,0.0,3.0,95,0.00,,,0.00,0.000000,,2013-08-25 07:12:00,
2013-08-25 03:22:00,51.0,50.0,-100.00,SE,124,0.0,3.0,95,0.00,,,0.00,0.000000,,2013-08-25 07:22:00,
2013-08-25 03:52:00,51.0,50.0,-100.00,ESE,103,0.0,2.0,98,0.00,,,0.00,0.000000,,2013-08-25 07:52:00,
2013-08-25 04:02:00,51.0,50.0,-100.00,ESE,103,0.0,2.0,98,0.00,,,0.00,0.000000,,2013-08-25 08:02:00,
2013-08-25 04:12:00,51.0,50.0,-100.00,ESE,103,0.0,2.0,98,0.00,,,0.00,0.000000,,2013-08-25 08:12:00,
2013-08-25 04:21:00,51.0,50.0,-100.00,ESE,103,0.0,2.0,98,0.00,,,0.00,0.000000,,2013-08-25 08:21:00,
2013-08-25 04:52:00,49.0,48.0,-100.00,South,186,0.0,2.0,98,0.00,,,0.00,0.000000,,2013-08-25 08:52:00,
2013-08-25 05:02:00,49.0,48.0,-100.00,South,186,0.0,2.0,98,0.00,,,0.00,0.000000,,2013-08-25 09:02:00,
2013-08-25 05:11:00,49.0,48.0,-100.00,South,186,0.0,2.0,98,0.00,,,0.00,0.000000,,2013-08-25 09:11:00,
2013-08-25 05:22:00,49.0,48.0,-100.00,South,186,0.0,2.0,98,0.00,,,0.00,0.000000,,2013-08-25 09:22:00,
2013-08-25 05:55:00,48.0,47.0,-100.00,SSE,164,0.0,2.0,98,0.00,,,-99.99,0.000000,,2013-08-25 09:55:00,
2013-08-25 06:03:00,48.0,47.0,-100.00,SSE,164,0.0,2.0,98,0.00,,,-99.99,0.000000,,2013-08-25 10:03:00,
2013-08-25 06:12:00,48.0,47.0,-100.00,SSE,164,0.0,2.0,98,0.00,,,-99.99,0.000000,,2013-08-25 10:12:00,
2013-08-25 06:23:00,48.0,47.0,-100.00,SSE,164,0.0,2.0,98,0.00,,,-99.99,0.000000,,2013-08-25 10:23:00,
2013-08-25 06:53:00,48.0,47.0,-100.00,SE,126,1.0,3.0,98,0.00,,,0.00,0.000000,,2013-08-25 10:53:00,
2013-08-25 07:03:00,48.0,47.0,-100.00,SE,126,1.0,3.0,98,0.00,,,0.00,0.000000,,2013-08-25 11:03:00,
2013-08-25 07:12:00,48.0,47.0,-100.00,SE,126,1.0,3.0,98,0.00,,,0.00,0.000000,,2013-08-25 11:12:00,
2013-08-25 07:22:00,48.0,47.0,-100.00,SE,126,1.0,3.0,98,0.00,,,0.00,0.000000,,2013-08-25 11:22:00,
2013-08-25 07:52:00,50.0,49.0,-100.00,ESE,120,0.0,3.0,97,0.00,,,0.00,21.000000,,2013-08-25 11:52:00,
2013-08-25 08:02:00,50.0,49.0,-100.00,ESE,120,0.0,3.0,97,0.00,,,0.00,21.000000,,2013-08-25 12:02:00,
2013-08-25 08:12:00,50.0,49.0,-100.00,ESE,120,0.0,3.0,97,0.00,,,0.00,21.000000,,2013-08-25 12:12:00,
2013-08-25 08:22:00,50.0,49.0,-100.00,ESE,120,0.0,3.0,97,0.00,,,0.00,21.000000,,2013-08-25 12:22:00,
2013-08-25 08:52:00,61.0,56.0,-100.00,ESE,116,2.0,3.0,83,0.00,,,0.00,156.000000,,2013-08-25 12:52:00,
2013-08-25 09:02:00,61.0,56.0,-100.00,ESE,116,2.0,3.0,83,0.00,,,0.00,156.000000,,2013-08-25 13:02:00,
2013-08-25 09:12:00,61.0,56.0,-100.00,ESE,116,2.0,3.0,83,0.00,,,0.00,156.000000,,2013-08-25 13:12:00,
2013-08-25 09:22:00,61.0,56.0,-100.00,ESE,116,2.0,3.0,83,0.00,,,0.00,156.000000,,2013-08-25 13:22:00,
2013-08-25 09:25:00,71.0,58.0,-100.00,SW,217,3.0,5.0,63,0.00,,,0.00,343.000000,,2013-08-25 13:25:00,
2013-08-25 10:11:00,71.0,58.0,-100.00,SW,217,3.0,5.0,63,0.00,,,0.00,343.000000,,2013-08-25 14:11:00,
2013-08-25 10:52:00,75.0,58.0,-100.00,SW,229,4.0,10.0,55,0.00,,,0.00,490.000000,,2013-08-25 14:52:00,
2013-08-25 11:01:00,75.0,58.0,-100.00,SW,229,4.0,10.0,55,0.00,,,0.00,490.000000,,2013-08-25 15:01:00,
2013-08-25 11:11:00,75.0,58.0,-100.00,SW,229,4.0,10.0,55,0.00,,,0.00,490.000000,,2013-08-25 15:11:00,
2013-08-25 11:23:00,75.0,58.0,-100.00,SW,229,4.0,10.0,55,0.00,,,0.00,490.000000,,2013-08-25 15:23:00,
2013-08-25 11:55:00,77.0,57.0,-100.00,WSW,244,6.0,12.0,50,0.00,,,0.00,628.000000,,2013-08-25 15:55:00,
2013-08-25 12:05:00,77.0,57.0,-100.00,WSW,244,6.0,12.0,50,0.00,,,0.00,628.000000,,2013-08-25 16:05:00,
2013-08-25 12:14:00,77.0,57.0,-100.00,WSW,244,6.0,12.0,50,0.00,,,0.00,628.000000,,2013-08-25 16:14:00,
2013-08-25 12:24:00,77.0,57.0,-100.00,WSW,244,6.0,12.0,50,0.00,,,0.00,628.000000,,2013-08-25 16:24:00,
2013-08-25 12:54:00,80.0,55.0,-100.00,WSW,254,7.0,11.0,42,0.00,,,0.00,739.000000,,2013-08-25 16:54:00,
2013-08-25 13:04:00,80.0,55.0,-100.00,WSW,254,7.0,11.0,42,0.00,,,0.00,739.000000,,2013-08-25 17:04:00,
2013-08-25 13:12:00,80.0,55.0,-100.00,WSW,254,7.0,11.0,42,0.00,,,0.00,739.000000,,2013-08-25 17:12:00,
2013-08-25 13:23:00,80.0,55.0,-100.00,WSW,254,7.0,11.0,42,0.00,,,0.00,739.000000,,2013-08-25 17:23:00,
2013-08-25 13:53:00,81.0,53.0,-100.00,WSW,247,8.0,16.0,38,0.00,,,0.00,767.000000,,2013-08-25 17:53:00,
2013-08-25 14:02:00,81.0,53.0,-100.00,WSW,247,8.0,16.0,38,0.00,,,0.00,767.000000,,2013-08-25 18:02:00,
2013-08-25 14:12:00,81.0,53.0,-100.00,WSW,247,8.0,16.0,38,0.00,,,0.00,767.000000,,2013-08-25 18:12:00,
2013-08-25 14:22:00,81.0,53.0,-100.00,WSW,247,8.0,16.0,38,0.00,,,0.00,767.000000,,2013-08-25 18:22:00,
2013-08-25 14:52:00,81.0,53.0,-100.00,WSW,253,10.0,17.0,38,0.00,,,0.00,658.000000,,2013-08-25 18:52:00,
2013-08-25 15:02:00,81.0,53.0,-100.00,WSW,253,10.0,17.0,38,0.00,,,0.00,658.000000,,2013-08-25 19:02:00,
2013-08-25 15:12:00,81.0,53.0,-100.00,WSW,253,10.0,17.0,38,0.00,,,0.00,658.000000,,2013-08-25 19:12:00,
2013-08-25 15:22:00,81.0,53.0,-100.00,WSW,253,10.0,17.0,38,0.00,,,0.00,658.000000,,2013-08-25 19:22:00,
2013-08-25 15:53:00,79.0,52.0,-100.00,WSW,249,8.0,18.0,39,0.00,,,0.00,544.000000,,2013-08-25 19:53:00,
2013-08-25 16:03:00,79.0,52.0,-100.00,WSW,249,8.0,18.0,39,0.00,,,0.00,544.000000,,2013-08-25 20:03:00,
2013-08-25 16:13:00,79.0,52.0,-100.00,WSW,249,8.0,18.0,39,0.00,,,0.00,544.000000,,2013-08-25 20:13:00,
2013-08-25 16:23:00,79.0,52.0,-100.00,WSW,249,8.0,18.0,39,0.00,,,0.00,544.000000,,2013-08-25 20:23:00,
2013-08-25 16:53:00,80.0,52.0,-100.00,WSW,241,8.0,17.0,38,0.00,,,0.00,585.000000,,2013-08-25 20:53:00,
2013-08-25 17:02:00,80.0,52.0,-100.00,WSW,241,8.0,17.0,38,0.00,,,0.00,585.000000,,2013-08-25 21:02:00,
2013-08-25 17:12:00,80.0,52.0,-100.00,WSW,241,8.0,17.0,38,0.00,,,0.00,585.000000,,2013-08-25 21:12:00,
2013-08-25 17:22:00,80.0,52.0,-100.00,WSW,241,8.0,17.0,38,0.00,,,0.00,585.000000,,2013-08-25 21:22:00,
2013-08-25 17:55:00,78.0,54.0,-100.00,SW,236,5.0,13.0,44,0.00,,,0.00,356.000000,,2013-08-25 21:55:00,
2013-08-25 18:03:00,78.0,54.0,-100.00,SW,236,5.0,13.0,44,0.00,,,0.00,356.000000,,2013-08-25 22:03:00,
2013-08-25 18:14:00,78.0,54.0,-100.00,SW,236,5.0,13.0,44,0.00,,,0.00,356.000000,,2013-08-25 22:14:00,
2013-08-25 18:24:00,78.0,54.0,-100.00,SW,236,5.0,13.0,44,0.00,,,0.00,356.000000,,2013-08-25 22:24:00,
2013-08-25 18:54:00,75.0,53.0,-100.00,SW,220,5.0,9.0,47,0.00,,,0.00,118.000000,,2013-08-25 22:54:00,
2013-08-25 19:03:00,75.0,53.0,-100.00,SW,220,5.0,9.0,47,0.00,,,0.00,118.000000,,2013-08-25 23:03:00,
2013-08-25 19:12:00,75.0,53.0,-100.00,SW,220,5.0,9.0,47,0.00,,,0.00,118.000000,,2013-08-25 23:12:00,
2013-08-25 19:23:00,75.0,53.0,-100.00,SW,220,5.0,9.0,47,0.00,,,0.00,118.000000,,2013-08-25 23:23:00,
2013-08-25 19:53:00,74.0,55.0,-100.00,SW,226,5.0,10.0,51,0.00,,,0.00,64.000000,,2013-08-25 23:53:00,
2013-08-25 20:02:00,74.0,55.0,-100.00,SW,226,5.0,10.0,51,0.00,,,0.00,64.000000,,2013-08-26 00:02:00,
2013-08-25 20:11:00,74.0,55.0,-100.00,SW,226,5.0,10.0,51,0.00,,,0.00,64.000000,,2013-08-26 00:11:00,
2013-08-25 20:22:00,74.0,55.0,-100.00,SW,226,5.0,10.0,51,0.00,,,0.00,64.000000,,2013-08-26 00:22:00,
2013-08-25 20:52:00,72.0,56.0,-100.00,SSW,199,3.0,7.0,57,0.00,,,0.00,9.000000,,2013-08-26 00:52:00,
2013-08-25 21:02:00,72.0,56.0,-100.00,SSW,199,3.0,7.0,57,0.00,,,0.00,9.000000,,2013-08-26 01:02:00,
2013-08-25 21:11:00,72.0,56.0,-100.00,SSW,199,3.0,7.0,57,0.00,,,0.00,9.000000,,2013-08-26 01:11:00,
2013-08-25 21:22:00,72.0,56.0,-100.00,SSW,199,3.0,7.0,57,0.00,,,0.00,9.000000,,2013-08-26 01:22:00,
2013-08-25 21:52:00,71.0,56.0,-100.00,SSW,209,5.0,10.0,59,0.00,,,0.00,0.000000,,2013-08-26 01:52:00,
2013-08-25 22:02:00,71.0,56.0,-100.00,SSW,209,5.0,10.0,59,0.00,,,0.00,0.000000,,2013-08-26 02:02:00,
2013-08-25 22:11:00,71.0,56.0,-100.00,SSW,209,5.0,10.0,59,0.00,,,0.00,0.000000,,2013-08-26 02:11:00,
2013-08-25 22:22:00,71.0,56.0,-100.00,SSW,209,5.0,10.0,59,0.00,,,0.00,0.000000,,2013-08-26 02:22:00,
2013-08-25 22:52:00,71.0,56.0,-100.00,SW,226,5.0,10.0,60,0.00,,,0.00,0.000000,,2013-08-26 02:52:00,
2013-08-25 23:02:00,71.0,56.0,-100.00,SW,226,5.0,10.0,60,0.00,,,0.00,0.000000,,2013-08-26 03:02:00,
2013-08-25 23:11:00,71.0,56.0,-100.00,SW,226,5.0,10.0,60,0.00,,,0.00,0.000000,,2013-08-26 03:11:00,
2013-08-25 23:22:00,71.0,56.0,-100.00,SW,226,5.0,10.0,60,0.00,,,0.00,0.000000,,2013-08-26 03:22:00,
2013-08-25 23:56:00,69.0,60.0,-100.00,NE,40,3.0,10.0,72,0.00,,,0.00,0.000000,,2013-08-26 03:56:00,